Weather History for Rickenbacker, OH

Change the Weather History Date:

Friday, November 8, 2013

  Actual Average Record
Temperature  
Mean Temperature 40 °F -  
Max Temperature 47 °F 53 °F 73 °F (2001)
Min Temperature 33 °F 35 °F 27 °F (2012)
Degree Days  
Heating Degree Days 25    
Moisture  
Dew Point 30 °F    
Average Humidity 70    
Maximum Humidity 86    
Minimum Humidity 45    
Precipitation  
Precipitation 0.00 in - - ()
Sea Level Pressure  
Sea Level Pressure 30.27 in    
Wind  
Wind Speed 6 mph (WSW)    
Max Wind Speed 17 mph    
Max Gust Speed 22 mph    
Visibility 9 miles    
Events Rain    
Averages and records for this station are not official NWS values.
T = Trace of Precipitation, MM = Missing Value Source: NWS Daily Summary

Daily Weather History Graph

Daily Weather History Graph

Search for Another Location

Airport:

Trip Planner

Search our weather history database for the weather conditions in past years. The results will help you decide how hot, cold, wet, or windy it might be!

Date:

Astronomy

Nov. 08, 2013 Rise Set
Actual Time 7:08 AM EST 5:21 PM EST
Civil Twilight 6:40 AM EST 5:50 PM EST
Nautical Twilight 6:07 AM EST 6:22 PM EST
Astronomical Twilight 5:36 AM EST 6:54 PM EST
Moon 12:03 PM EST (11/8) 10:41 PM EST (11/8)
Length of Visible Light 11h 10m
Length of Day
10h 13m
Waxing Crescent, 33% of the Moon is Illuminated
Nov 8
Waxing Crescent
Nov 10
First Quarter
Nov 17
Full
Nov 25
Last Quarter
Dec 2
New

Hourly Weather History & Observations

Time (EST) Temp. Windchill Dew Point Humidity Pressure Visibility Wind Dir Wind Speed Gust Speed Precip Events Conditions
12:15 AM 41.0 °F 37.1 °F 29.3 °F 63% 30.17 in 10.0 mi WSW 5.8 mph - N/A   Overcast
12:35 AM 40.3 °F 36.3 °F 29.1 °F 64% 30.17 in 10.0 mi WSW 5.8 mph - N/A   Mostly Cloudy
12:55 AM 40.5 °F 31.8 °F 29.5 °F 65% 30.19 in 10.0 mi NNW 17.3 mph 21.9 mph N/A   Overcast
1:15 AM 39.9 °F 32.1 °F 32.0 °F 73% 30.20 in 7.0 mi WNW 13.8 mph 17.3 mph N/A Rain Light Rain
1:35 AM 38.8 °F 33.8 °F 33.1 °F 80% 30.19 in 10.0 mi West 6.9 mph - N/A Rain Light Rain
1:55 AM 38.7 °F 34.3 °F 33.3 °F 81% 30.18 in 10.0 mi West 5.8 mph - N/A   Overcast
2:15 AM 38.8 °F 33.2 °F 33.3 °F 80% 30.19 in 10.0 mi WNW 8.1 mph - N/A   Overcast
2:35 AM 38.8 °F 33.8 °F 32.9 °F 79% 30.19 in 10.0 mi NW 6.9 mph - N/A   Scattered Clouds
2:55 AM 38.3 °F 33.9 °F 32.7 °F 80% 30.20 in 10.0 mi WNW 5.8 mph - N/A   Clear
3:15 AM 37.8 °F 32.5 °F 32.4 °F 81% 30.20 in 10.0 mi WNW 6.9 mph - N/A   Clear
3:35 AM 37.8 °F 33.3 °F 32.4 °F 81% 30.20 in 10.0 mi WNW 5.8 mph - N/A   Clear
3:55 AM 37.2 °F 32.6 °F 32.2 °F 82% 30.21 in 10.0 mi WNW 5.8 mph - N/A   Clear
4:15 AM 37.2 °F 31.9 °F 32.2 °F 82% 30.21 in 10.0 mi WNW 6.9 mph - N/A   Scattered Clouds
4:35 AM 37.4 °F 32.8 °F 32.0 °F 81% 30.21 in 10.0 mi West 5.8 mph - N/A   Clear
4:55 AM 36.9 °F 32.2 °F 32.0 °F 83% 30.22 in 10.0 mi WNW 5.8 mph - N/A   Clear
5:15 AM 36.1 °F 32.3 °F 31.6 °F 84% 30.23 in 10.0 mi West 4.6 mph - N/A   Clear
5:35 AM 36.0 °F 29.0 °F 31.5 °F 84% 30.24 in 10.0 mi West 9.2 mph - N/A   Clear
5:55 AM 36.1 °F 30.6 °F 31.1 °F 82% 30.25 in 7.0 mi West 6.9 mph - N/A   Clear
6:15 AM 35.1 °F 30.1 °F 30.7 °F 84% 30.26 in 7.0 mi West 5.8 mph - N/A   Clear
6:35 AM 34.0 °F 28.0 °F 30.0 °F 85% 30.26 in 7.0 mi WSW 6.9 mph - N/A   Clear
6:55 AM 33.6 °F 26.8 °F 29.8 °F 86% 30.27 in 5.0 mi WSW 8.1 mph - N/A   Scattered Clouds
7:15 AM 33.6 °F 27.5 °F 29.7 °F 85% 30.28 in 4.0 mi WSW 6.9 mph - N/A   Clear
7:35 AM 33.3 °F 27.9 °F 29.5 °F 86% 30.29 in 4.0 mi WSW 5.8 mph - N/A   Clear
7:55 AM 33.6 °F 30.6 °F 29.8 °F 86% 30.30 in 4.0 mi WSW 3.5 mph - N/A   Clear
8:15 AM 34.3 °F - 30.2 °F 85% 30.31 in 4.0 mi Calm Calm - N/A   Haze
8:35 AM 35.4 °F 29.0 °F 30.6 °F 82% 30.31 in 5.0 mi West 8.1 mph - N/A   Haze
8:55 AM 36.7 °F 30.5 °F 30.9 °F 80% 30.32 in 7.0 mi West 8.1 mph - N/A   Clear
9:15 AM 37.8 °F 32.5 °F 31.3 °F 77% 30.32 in 7.0 mi West 6.9 mph - N/A   Clear
9:35 AM 38.8 °F 32.1 °F 31.3 °F 74% 30.33 in 10.0 mi West 10.4 mph - N/A   Scattered Clouds
9:55 AM 39.6 °F 34.0 °F 31.5 °F 73% 30.33 in 7.0 mi West 8.1 mph - N/A   Scattered Clouds
10:15 AM 40.3 °F 35.5 °F 31.8 °F 72% 30.33 in 10.0 mi West 6.9 mph - N/A   Scattered Clouds
10:35 AM 41.4 °F 36.8 °F 31.8 °F 69% 30.34 in 10.0 mi WNW 6.9 mph - N/A   Scattered Clouds
10:55 AM 41.0 °F 37.1 °F 31.6 °F 69% 30.35 in 10.0 mi West 5.8 mph - N/A   Mostly Cloudy
11:15 AM 41.7 °F 38.8 °F 32.0 °F 68% 30.35 in 10.0 mi WNW 4.6 mph - N/A   Mostly Cloudy
11:35 AM 43.0 °F 38.2 °F 32.0 °F 65% 30.34 in 10.0 mi NW 8.1 mph - N/A   Mostly Cloudy
11:55 AM 42.8 °F 38.6 °F 31.5 °F 64% 30.34 in 10.0 mi WNW 6.9 mph - N/A   Mostly Cloudy
12:15 PM 43.0 °F 39.5 °F 31.5 °F 64% 30.33 in 10.0 mi West 5.8 mph - N/A   Mostly Cloudy
12:35 PM 44.2 °F 41.0 °F 31.1 °F 60% 30.32 in 10.0 mi NW 5.8 mph - N/A   Overcast
12:55 PM 45.1 °F 40.8 °F 29.3 °F 54% 30.31 in 10.0 mi NW 8.1 mph - N/A   Overcast
1:15 PM 45.3 °F 41.6 °F 28.8 °F 52% 30.30 in 10.0 mi West 6.9 mph - N/A   Mostly Cloudy
1:35 PM 45.1 °F 42.8 °F 28.6 °F 52% 30.30 in 10.0 mi West 4.6 mph - N/A   Scattered Clouds
1:55 PM 46.2 °F 43.3 °F 28.9 °F 51% 30.30 in 10.0 mi West 5.8 mph - N/A   Scattered Clouds
2:15 PM 45.9 °F 42.3 °F 28.4 °F 51% 30.30 in 10.0 mi NNW 6.9 mph - N/A   Scattered Clouds
2:35 PM 46.8 °F - 28.4 °F 49% 30.29 in 10.0 mi Calm Calm - N/A   Scattered Clouds
2:55 PM 47.7 °F - 28.4 °F 47% 30.29 in 10.0 mi WSW 9.2 mph - N/A   Scattered Clouds
3:15 PM 46.9 °F - 28.0 °F 48% 30.28 in 10.0 mi West 5.8 mph - N/A   Scattered Clouds
3:35 PM 47.3 °F - 27.5 °F 46% 30.28 in 10.0 mi WNW 5.8 mph - N/A   Clear
3:55 PM 47.3 °F - 26.8 °F 45% 30.28 in 10.0 mi West 6.9 mph - N/A   Clear
4:15 PM 47.1 °F - 26.6 °F 45% 30.28 in 10.0 mi West 5.8 mph - N/A   Clear
4:35 PM 46.8 °F - 26.4 °F 45% 30.28 in 10.0 mi WSW 6.9 mph - N/A   Clear
4:55 PM 45.5 °F 43.2 °F 26.8 °F 48% 30.28 in 10.0 mi WSW 4.6 mph - N/A   Clear
5:15 PM 45.0 °F 43.5 °F 26.8 °F 49% 30.27 in 10.0 mi WSW 3.5 mph - N/A   Clear
5:35 PM 44.6 °F - 26.8 °F 50% 30.27 in 10.0 mi Calm Calm - N/A   Clear
5:55 PM 42.1 °F - 28.4 °F 58% 30.27 in 10.0 mi Calm Calm - N/A   Clear
6:15 PM 41.5 °F 38.6 °F 28.2 °F 59% 30.27 in 10.0 mi SSE 4.6 mph - N/A   Clear
6:35 PM 38.7 °F 34.3 °F 28.4 °F 67% 30.28 in 10.0 mi SSE 5.8 mph - N/A   Clear
6:55 PM 37.8 °F 34.2 °F 28.6 °F 69% 30.28 in 10.0 mi South 4.6 mph - N/A   Clear
7:15 PM 37.8 °F 33.3 °F 28.2 °F 68% 30.27 in 10.0 mi SSE 5.8 mph - N/A   Clear
7:35 PM 36.3 °F 32.5 °F 28.4 °F 73% 30.27 in 10.0 mi SSE 4.6 mph - N/A   Clear
7:55 PM 36.7 °F 34.1 °F 28.4 °F 72% 30.27 in 10.0 mi SSE 3.5 mph - N/A   Clear
8:15 PM 36.9 °F 33.1 °F 28.2 °F 71% 30.27 in 10.0 mi SSE 4.6 mph - N/A   Clear
8:35 PM 36.1 °F - 28.4 °F 73% 30.27 in 10.0 mi Calm Calm - N/A   Clear
8:55 PM 36.3 °F - 28.8 °F 74% 30.27 in 10.0 mi Calm Calm - N/A   Clear
9:15 PM 36.0 °F 32.1 °F 28.6 °F 75% 30.27 in 10.0 mi SSE 4.6 mph - N/A   Clear
9:35 PM 35.1 °F 32.2 °F 28.9 °F 78% 30.27 in 10.0 mi SE 3.5 mph - N/A   Clear
9:55 PM 35.2 °F 32.4 °F 28.6 °F 77% 30.27 in 10.0 mi SSE 3.5 mph - N/A   Clear
10:15 PM 34.9 °F 30.8 °F 28.2 °F 77% 30.27 in 10.0 mi SSE 4.6 mph - N/A   Clear
10:35 PM 35.4 °F 32.6 °F 28.4 °F 76% 30.26 in 10.0 mi South 3.5 mph - N/A   Clear
10:55 PM 36.0 °F 33.3 °F 28.8 °F 75% 30.26 in 10.0 mi SSE 3.5 mph - N/A   Clear
11:15 PM 35.8 °F 33.0 °F 29.3 °F 77% 30.25 in 10.0 mi SSE 3.5 mph - N/A   Clear
11:35 PM 36.1 °F - 29.8 °F 78% 30.25 in 10.0 mi Calm Calm - N/A   Clear
11:55 PM 36.5 °F 33.9 °F 29.5 °F 76% 30.25 in 10.0 mi South 3.5 mph - N/A   Clear